Tracking 19827 objects as of 21-Aug-2019
HD Live streaming from Space Station
objects crossing your sky now

FENGYUN 1C DEB

Track FENGYUN 1C DEB now!
10-day predictions


NORAD ID: 31294
Int'l Code: 1999-025BPC
Perigee: 784.7 km
Apogee: 937.4 km
Inclination: 98.7 °
Period: 102.0 minutes
Semi major axis: 7232 km
RCS: 0.012 m2 (small)
Launch date: May 10, 1999
Source: People's Republic of China (PRC)
Launch site: Taiyaun Space Center, China (TSC)

Note: This is SATELLITE DEBRIS
aabbcc
Your satellite tracking list
Your tracking list is empty




NASA's NSSDC Master Catalog

Two Line Element Set (TLE):
1 31294U 99025BPC 19232.59348871 +.00000067 +00000-0 +57139-4 0  9998
2 31294 098.7275 286.8283 0105515 087.4417 273.8829 14.11596465642928
Source of the keplerian elements: AFSPC